• In Portugal
  • List of Countries
  • For 7 days
  • Water Temperature
  • Satellite Maps
  • Weather Map
  • Weather Widgets
  • user-avatar
    Login

    Hourly Weather Biratnagar

    Today, 18 June, Monday

    Time Temperature Precipitation Wind Pressure Humidity
    00:00 +28°C° 1.6 mm 4 mps 744 mmHg 88%
    01:00 +28°C° 1.5 mm 4 mps 744 mmHg 88%
    02:00 +28°C° 1.5 mm 4 mps 743 mmHg 88%
    03:00 +28°C° 1.5 mm 4 mps 743 mmHg 88%
    04:00 +28°C° 0.5 mm 4 mps 743 mmHg 87%
    05:00 +28°C° 0.5 mm 4 mps 743 mmHg 86%
    06:00 +28°C° 0.5 mm 4 mps 744 mmHg 85%
    07:00 +29°C° 0 mm 4 mps 744 mmHg 80%
    08:00 +32°C° 0 mm 4 mps 744 mmHg 74%
    09:00 +34°C° 0 mm 4 mps 744 mmHg 68%
    10:00 +34°C° 0.1 mm 4 mps 744 mmHg 66%
    11:00 +35°C° 0.1 mm 4 mps 744 mmHg 64%
    12:00 +36°C° 0.1 mm 4 mps 744 mmHg 62%
    13:00 +37°C° 0.7 mm 3 mps 744 mmHg 60%
    14:00 +37°C° 0.7 mm 2 mps 743 mmHg 59%
    15:00 +37°C° 0.7 mm 2 mps 743 mmHg 58%
    16:00 +37°C° 0.5 mm 2 mps 743 mmHg 59%
    17:00 +37°C° 0.5 mm 2 mps 743 mmHg 61%
    18:00 +37°C° 0.5 mm 2 mps 742 mmHg 62%
    19:00 +35°C° 0.1 mm 2 mps 743 mmHg 66%
    20:00 +34°C° 0.1 mm 2 mps 743 mmHg 69%
    21:00 +33°C° 0.1 mm 3 mps 743 mmHg 73%
    22:00 +32°C° 0 mm 2 mps 743 mmHg 74%
    23:00 +31°C° 0 mm 2 mps 743 mmHg 75%

    Tomorrow, 19 June, Tuesday

    Time Temperature Precipitation Wind Pressure Humidity
    00:00 +31°C° 0 mm 2 mps 743 mmHg 76%
    01:00 +31°C° 0 mm 2 mps 743 mmHg 76%
    02:00 +30°C° 0 mm 2 mps 743 mmHg 77%
    03:00 +30°C° 0 mm 3 mps 743 mmHg 77%
    04:00 +30°C° 0.2 mm 3 mps 743 mmHg 77%
    05:00 +30°C° 0.2 mm 3 mps 744 mmHg 77%
    06:00 +29°C° 0.2 mm 3 mps 744 mmHg 76%
    07:00 +31°C° 0 mm 3 mps 744 mmHg 72%
    08:00 +34°C° 0 mm 3 mps 744 mmHg 67%
    09:00 +35°C° 0 mm 4 mps 745 mmHg 62%
    10:00 +37°C° 0 mm 4 mps 745 mmHg 59%
    11:00 +38°C° 0 mm 3 mps 745 mmHg 55%
    12:00 +39°C° 0 mm 3 mps 744 mmHg 52%
    13:00 +40°C° 0.2 mm 3 mps 744 mmHg 49%
    14:00 +40°C° 0.2 mm 2 mps 743 mmHg 47%
    15:00 +41°C° 0.2 mm 1 mps 743 mmHg 44%
    16:00 +41°C° 0.4 mm 1 mps 743 mmHg 46%
    17:00 +40°C° 0.4 mm 1 mps 743 mmHg 48%
    18:00 +40°C° 0.4 mm 2 mps 742 mmHg 50%
    19:00 +38°C° 0.1 mm 2 mps 743 mmHg 53%
    20:00 +37°C° 0.1 mm 3 mps 743 mmHg 57%
    21:00 +35°C° 0.1 mm 3 mps 744 mmHg 60%
    22:00 +35°C° 0.1 mm 3 mps 744 mmHg 63%
    23:00 +34°C° 0.1 mm 3 mps 744 mmHg 66%

    Day after tomorrow, 20 June, Wednesday

    Time Temperature Precipitation Wind Pressure Humidity
    00:00 +34°C° 0.1 mm 4 mps 744 mmHg 69%
    01:00 +33°C° 0 mm 4 mps 744 mmHg 70%
    02:00 +33°C° 0 mm 4 mps 744 mmHg 70%
    03:00 +32°C° 0 mm 4 mps 743 mmHg 71%
    04:00 +32°C° 0.4 mm 4 mps 744 mmHg 72%
    05:00 +32°C° 0.4 mm 4 mps 744 mmHg 74%
    06:00 +30°C° 0.4 mm 4 mps 744 mmHg 75%
    07:00 +32°C° 0.1 mm 4 mps 744 mmHg 72%
    08:00 +34°C° 0.1 mm 4 mps 745 mmHg 69%
    09:00 +35°C° 0.1 mm 5 mps 745 mmHg 66%
    10:00 +36°C° 0.2 mm 5 mps 745 mmHg 64%
    11:00 +37°C° 0.2 mm 5 mps 745 mmHg 62%
    12:00 +39°C° 0.2 mm 5 mps 745 mmHg 60%
    13:00 +39°C° 0.2 mm 5 mps 744 mmHg 58%
    14:00 +40°C° 0.2 mm 4 mps 744 mmHg 56%
    15:00 +40°C° 0.2 mm 4 mps 743 mmHg 54%
    16:00 +40°C° 0.5 mm 4 mps 743 mmHg 57%
    17:00 +38°C° 0.5 mm 4 mps 743 mmHg 59%
    18:00 +38°C° 0.5 mm 3 mps 742 mmHg 62%
    19:00 +36°C° 0.5 mm 4 mps 743 mmHg 66%
    20:00 +35°C° 0.5 mm 4 mps 743 mmHg 70%
    21:00 +34°C° 0.5 mm 4 mps 744 mmHg 74%
    22:00 +34°C° 0.1 mm 4 mps 744 mmHg 74%
    23:00 +33°C° 0.1 mm 4 mps 744 mmHg 74%

    21 June, Thursday

    Time Temperature Precipitation Wind Pressure Humidity
    00:00 +33°C° 0.1 mm 4 mps 744 mmHg 74%
    01:00 +33°C° 0.1 mm 4 mps 744 mmHg 74%
    02:00 +32°C° 0.1 mm 4 mps 743 mmHg 73%
    03:00 +32°C° 0.1 mm 4 mps 743 mmHg 73%
    04:00 +32°C° 1.6 mm 4 mps 743 mmHg 75%
    05:00 +30°C° 1.6 mm 4 mps 744 mmHg 77%
    06:00 +30°C° 1.6 mm 5 mps 744 mmHg 79%
    07:00 +30°C° 0.2 mm 5 mps 744 mmHg 77%
    08:00 +32°C° 0.2 mm 5 mps 745 mmHg 75%
    09:00 +32°C° 0.2 mm 5 mps 745 mmHg 74%
    10:00 +34°C° 0.1 mm 6 mps 745 mmHg 71%
    11:00 +35°C° 0.1 mm 6 mps 745 mmHg 68%
    12:00 +36°C° 0.1 mm 6 mps 745 mmHg 65%
    13:00 +38°C° 0.4 mm 6 mps 744 mmHg 64%
    14:00 +38°C° 0.4 mm 6 mps 744 mmHg 62%
    15:00 +39°C° 0.4 mm 5 mps 743 mmHg 60%
    16:00 +37°C° 0.4 mm 5 mps 743 mmHg 62%
    17:00 +37°C° 0.4 mm 5 mps 743 mmHg 65%
    18:00 +36°C° 0.4 mm 4 mps 743 mmHg 67%
    19:00 +35°C° 0.5 mm 4 mps 743 mmHg 70%
    20:00 +34°C° 0.5 mm 4 mps 744 mmHg 73%
    21:00 +33°C° 0.5 mm 4 mps 744 mmHg 76%
    22:00 +32°C° 0.9 mm 4 mps 744 mmHg 78%
    23:00 +32°C° 0.9 mm 4 mps 744 mmHg 79%

    22 June, Friday

    Time Temperature Precipitation Wind Pressure Humidity
    00:00 +32°C° 0.9 mm 4 mps 744 mmHg 81%
    01:00 +30°C° 0.7 mm 4 mps 744 mmHg 82%
    02:00 +30°C° 0.7 mm 5 mps 744 mmHg 84%
    03:00 +30°C° 0.7 mm 5 mps 743 mmHg 85%
    04:00 +29°C° 2 mm 5 mps 744 mmHg 86%
    05:00 +29°C° 2 mm 5 mps 744 mmHg 86%
    06:00 +29°C° 2 mm 5 mps 744 mmHg 87%
    07:00 +29°C° 0.9 mm 4 mps 744 mmHg 86%
    08:00 +30°C° 0.9 mm 4 mps 745 mmHg 84%
    09:00 +30°C° 0.9 mm 4 mps 745 mmHg 83%
    10:00 +32°C° 0.2 mm 4 mps 745 mmHg 78%
    11:00 +34°C° 0.2 mm 4 mps 744 mmHg 73%
    12:00 +35°C° 0.2 mm 4 mps 744 mmHg 68%
    13:00 +36°C° 0.4 mm 5 mps 744 mmHg 66%
    14:00 +37°C° 0.4 mm 5 mps 743 mmHg 64%
    15:00 +37°C° 0.4 mm 5 mps 743 mmHg 62%
    16:00 +36°C° 0.4 mm 5 mps 743 mmHg 65%
    17:00 +36°C° 0.4 mm 5 mps 743 mmHg 68%
    18:00 +35°C° 0.4 mm 5 mps 743 mmHg 71%
    19:00 +34°C° 1.2 mm 5 mps 743 mmHg 75%
    20:00 +33°C° 1.2 mm 5 mps 743 mmHg 79%
    21:00 +30°C° 1.2 mm 5 mps 744 mmHg 83%
    22:00 +30°C° 1.5 mm 5 mps 744 mmHg 85%
    23:00 +30°C° 1.5 mm 5 mps 744 mmHg 86%

    23 June, Saturday

    Time Temperature Precipitation Wind Pressure Humidity
    00:00 +29°C° 1.5 mm 5 mps 744 mmHg 88%
    01:00 +29°C° 1.5 mm 5 mps 744 mmHg 88%
    02:00 +29°C° 1.5 mm 5 mps 744 mmHg 88%
    03:00 +29°C° 1.5 mm 5 mps 743 mmHg 89%
    04:00 +29°C° 0.7 mm 5 mps 744 mmHg 88%
    05:00 +29°C° 0.7 mm 4 mps 744 mmHg 88%
    06:00 +29°C° 0.7 mm 4 mps 744 mmHg 88%
    07:00 +29°C° 1.4 mm 4 mps 744 mmHg 87%
    08:00 +29°C° 1.4 mm 4 mps 745 mmHg 86%
    09:00 +30°C° 1.4 mm 4 mps 745 mmHg 85%
    10:00 +30°C° 0.7 mm 4 mps 745 mmHg 83%
    11:00 +32°C° 0.7 mm 4 mps 745 mmHg 81%
    12:00 +33°C° 0.7 mm 4 mps 745 mmHg 78%
    13:00 +34°C° 0.3 mm 4 mps 744 mmHg 74%
    14:00 +35°C° 0.3 mm 4 mps 743 mmHg 69%
    15:00 +36°C° 0.3 mm 4 mps 743 mmHg 65%
    16:00 +35°C° 0 mm 4 mps 743 mmHg 67%
    17:00 +35°C° 0 mm 4 mps 742 mmHg 70%
    18:00 +34°C° 0 mm 4 mps 742 mmHg 72%
    19:00 +33°C° 0.1 mm 4 mps 743 mmHg 75%
    20:00 +33°C° 0.1 mm 4 mps 743 mmHg 77%
    21:00 +32°C° 0.1 mm 5 mps 743 mmHg 80%
    22:00 +32°C° 0.7 mm 5 mps 743 mmHg 82%
    23:00 +30°C° 0.7 mm 5 mps 743 mmHg 83%
    Show more